Home > Weather > Ashkelon > Past weeks

Flag for Israel Past Weather in Ashkelon, Israel — Yesterday and Last 2 Weeks

Now
84 °F

Sunny.


Feels Like: 90 °F
Forecast: 79 / 86 °F
Wind: 8 mph from Northwest

Location: Ben Gurion International Airport

Current Time: Aug 25, 2016 at 8:01:02 PM

Latest Report: Aug 25, 2016 at 7:20 PM


Visibility: 10 mi

Pressure: 29.77 "Hg

Humidity: 66%

Dew Point: 72 °F

Location of AshkelonLocation

Past Weather in Ashkelon — Graph

°F

Ashkelon Temperature Yesterday

Maximum temperature yesterday: 90 °F (at 11:20 AM)
Minimum temperature yesterday: 77 °F (at 6:20 AM)
Average temperature yesterday: 83 °F

High & Low Weather Summary for the Past Weeks

 TemperatureHumidityPressure
High91 °F (Aug 14, 12:50 PM)84% (Aug 15, 3:50 AM)29.86 "Hg (Aug 15, 3:50 AM)
Low75 °F (Aug 13, 4:50 AM)46% (Aug 11, 1:20 PM)29.71 "Hg (Aug 17, 3:50 PM)
Average83 °F65%29.79 "Hg
* Reported Aug 10 6:20 PM — Aug 25 6:50 PM, Ashkelon, Weather by CustomWeather, © 2016

Note: Actual official high and low records may vary slightly from our data, if they occured in-between our weather recording intervals... More about our weather records

Advertising

Ashkelon Weather History for the Previous 24 Hours

Scroll right to see more
 ConditionsComfort  
Time TempWeatherWind HumidityBarometerVisibility
6:50 PM
Thu, Aug 25
84 °FSunny.12 mph66%29.77 "Hg10 mi
6:20 PM84 °FSunny.10 mph62%29.77 "Hg10 mi
5:50 PM86 °FSunny.10 mph59%29.77 "Hg10 mi
5:20 PM86 °FPassing clouds.10 mph59%29.77 "HgN/A
4:50 PM86 °FPassing clouds.12 mph59%29.77 "HgN/A
4:20 PM88 °FPassing clouds.12 mph55%29.77 "HgN/A
3:50 PM88 °FPassing clouds.13 mph55%29.77 "HgN/A
3:20 PM88 °FScattered clouds.12 mph59%29.77 "HgN/A
2:50 PM88 °FScattered clouds.12 mph59%29.77 "HgN/A
2:20 PM88 °FScattered clouds.13 mph59%29.77 "HgN/A
1:50 PM88 °FScattered clouds.14 mph59%29.77 "HgN/A
1:20 PM88 °FScattered clouds.12 mph59%29.77 "HgN/A
12:50 PM88 °FScattered clouds.10 mph59%29.77 "HgN/A
12:20 PM88 °FScattered clouds.13 mph59%29.77 "HgN/A
11:50 AM88 °FScattered clouds.9 mph59%29.77 "HgN/A
11:20 AM88 °FScattered clouds.7 mph59%29.77 "HgN/A
10:50 AM88 °FScattered clouds.5 mph59%29.77 "HgN/A
10:20 AM86 °FScattered clouds.6 mph59%29.77 "HgN/A
9:50 AM86 °FScattered clouds.5 mph59%29.77 "HgN/A
9:20 AM84 °FScattered clouds.2 mph66%29.77 "HgN/A
8:50 AM84 °FPassing clouds.2 mph66%29.77 "HgN/A
8:20 AM82 °FPassing clouds.5 mph70%29.77 "HgN/A
7:50 AM81 °FPassing clouds.6 mph74%29.77 "HgN/A
7:20 AM81 °FPassing clouds.7 mph74%29.77 "HgN/A
6:50 AM79 °FPassing clouds.6 mph79%29.77 "HgN/A
6:20 AM79 °FPassing clouds.6 mph79%29.77 "HgN/A
5:50 AM79 °FPassing clouds.5 mph79%29.77 "HgN/A
5:20 AM79 °FPassing clouds.7 mph79%29.77 "HgN/A
4:50 AM79 °FPassing clouds.6 mph79%29.77 "HgN/A
4:20 AM79 °FPassing clouds.7 mph79%29.77 "HgN/A
3:50 AM79 °FPassing clouds.7 mph79%29.77 "HgN/A
3:20 AM79 °FPassing clouds.5 mph79%29.74 "HgN/A
2:50 AM79 °FPassing clouds.5 mph79%29.74 "HgN/A
2:20 AM79 °FPassing clouds.3 mph79%29.74 "HgN/A
1:50 AM81 °FPassing clouds.3 mph74%29.74 "HgN/A
1:20 AM81 °FPassing clouds.3 mph74%29.77 "HgN/A
12:50 AM81 °FPassing clouds.5 mph74%29.77 "HgN/A
12:20 AM81 °FPassing clouds.3 mph74%29.77 "HgN/A
11:50 PM
Wed, Aug 24
81 °FPassing clouds.3 mph74%29.77 "HgN/A
11:20 PM81 °FPassing clouds.3 mph74%29.77 "HgN/A
10:50 PM82 °FPassing clouds.3 mph70%29.77 "HgN/A
10:20 PM82 °FPassing clouds.3 mph70%29.77 "HgN/A
9:50 PM82 °FPassing clouds.5 mph70%29.77 "HgN/A
9:20 PM82 °FPassing clouds.7 mph70%29.77 "HgN/A
8:50 PM82 °FPassing clouds.8 mph70%29.77 "HgN/A
8:20 PM82 °FPassing clouds.8 mph70%29.77 "HgN/A
Weather by CustomWeather, © 2016

See weather overviewHow to use our weather pages